Probability
0 0 0 0 0 0 0 0 0 0 0 0 0 0 0 0 0 0 0 0 0 0 0 0 0 0 0 0 0 0 0 0 0 0 0 0 0 0 0 0 0 0 0 0
0 0 0 0 0 0 0 0 0 0 0 0 0 0 0 0 0 0 0 0 0 0 0 0 0 0 0 0 0 0 0 0 0 0 0 0 0 0 0 0 0 0 0 0
0 0 0 0 0 0 0 0 0 0 0 0 0 0 0 0 0 0 0 0 0 0 0 0 0 0 0 0 0 0 0 0 0 0 0 0 0 0 0 0 0 0 0 0
0 0 0 0 0 0 0 0 0 0 0 0 0 0 0 0 0 0 0 0 0 0 0 0 0 0 0 0 0 0 0 0 0 0 0 0 0 0 0 0 0 0 0 0
0 0 0 0 0 0 0 0 0 0 0 0 0 0 0 0 0 0 0 0 0 0 0 0 0 0 0 0 0 0 0 0 0 0 0 0 0 0 0 0 0 0 0 0
0 0 0 0 0 0 0 0 0 0 0 0 0 0 0 0 0 0 0 0 0 0 0 0 0 0 0 0 0 0 0 0 0 0 0 0 0 0 0 0 0 0 0 0
0 0 0 0 0 0 0 0 0 0 0 0 0 0 0 0 0 0 0 0 0 0 0 0 0 0 0 0 0 0 0 0 0 0 0 0 0 0 0 0 0 0 0 0
0 0 0 0 0 0 0 0 0 0 0 0 0 0 0 0 0 0 0 0 0 0 0 0 0 0 0 0 0 0 0 0 0 0 0 0 0 0 0 0 0 0 0 0
0 0 0 0 0 0 0 0 0 0 0 0 0 0 0 0 0 0 0 0 0 0 0 0 0 0 0 0 0 0 0 0 0 0 0 0 0 0 0 0 0 0 0 0
0 0 0 0 0 0 0 0 0 0 0 0 0 0 0 0 0 0 0 0 0 0 0 0 0 0 0 0 0 0 0 0 0 0 0 0 0 0 0 0 0 0 0 0
0 0 0 0 0 0 0 0 0 0 0 0 0 0 0 0 0 0 0 0 0 0 0 0 0 0 0 0 0 0 0 0 0 0 0 0 0 0 0 0 0 0 0 0
0 0 0 0 0 0 0 0 0 0 0 0 0 0 0 0 0 0 0 0 0 0 0 0 0 0 0 0 0 0 0 0 0 0 0 0 0 0 0 0 0 0 0 0
0 0 0 0 0 0 0 0 0 0 0 0 0 0 0 0 0 0 0 0 0 0 0 0 0 0 0 0 0 0 0 0 0 0 0 0 0 0 0 0 0 0 0 0
0 0 0 0 0 0 0 0 0 0 0 0 0 0 0 0 0 0 0 0 0 0 0 0 0 0 0 0 0 0 0 0 0 0 0 0 0 0 0 0 0 0 0 0
0 0 0 0 0 0 0 0 0 0 0 0 0 0 0 0 0 0 0 0 0 0 0 0 0 0 0 0 0 0 0 0 0 0 0 0 0 0 0 0 0 0 0 0
0 0 0 0 0 0 0 0 0 0 0 0 0 0 0 0 0 0 0 0 0 0 0 0 0 0 0 0 0 0 0 0 0 0 0 0 0 0 0 0 0 0 0 0
0 0 0 0 0 0 0 0 0 0 0 0 0 0 0 0 0 0 0 0 0 0 0 0 0 0 0 0 0 0 0 0 0 0 0 0 0 0 0 0 0 0 0 0
0 0 0 0 0 0 0 0 0 0 0 0 0 0 0 0 0 0 0 0 0 0 0 0 0 0 0 0 0 0 0 0 0 0 0 0 0 0 0 0 0 0 0 0
0 0 0 0 0 0 0 0 0 0 0 0 0 0 0 0 0 0 0 0 0 0 0 0 0 0 0 0 0 0 0 0 0 0 0 0 0 0 0 0 0 0 0 0
0 0 0 0 0 0 0 0 0 0 0 0 0 0 0 0 0 0 0 0 0 0 0 0 0 0 0 0 0 0 0 0 0 0 0 0 0 0 0 0 0 0 0 0
0 0 0 0 0 0 0 0 0 0 0 0 0 0 0 0 0 0 0 0 0 0 0 0 0 0 0 0 0 0 0 0 0 0 0 0 0 0 0 0 0 0 0 0
0 0 0 0 0 0 0 0 0 0 0 0 0 0 0 0 0 0 0 0 0 0 0 0 0 0 0 0 0 0 0 0 0 0 0 0 0 0 0 0 0 0 0 0
0 0 0 0 0 0 0 0 0 0 0 0 0 0 0 0 0 0 0 0 0 0 0 0 0 0 0 0 0 0 0 0 0 0 0 0 0 0 0 0 0 0 0 0
0 0 0 0 0 0 0 0 0 0 0 0 0 0 0 0 0 0 0 0 0 0 0 0 0 0 0 0 0 0 0 0 0 0 0 0 0 0 0 0 0 0 0 0
0 0 0 0 0 0 0 0 0 0 0 0 0 0 0 0 0 0 0 0 0 0 0 0 0 0 0 0 0 0 0 0 0 0 0 0 0 0 0 0 0 0 0 0
0 0 0 0 0 0 0 0 0 0 0 0 0 0 0 0 0 0 0 0 0 0 0 0 0 0 0 0 0 0 0 0 0 0 0 0 0 0 0 0 0 0 0 0
Wind_Speed
4 4 5 5 7 6 6 7 8 6 1 3 6 9 8 4 3 3 2 1 1 1 2 3 3 4 4 3 4 4 4 4 4 3 4 3 3 3 2 2 3 3 3 4
3 6 5 3 4 5 7 9 8 4 2 4 6 9 8 4 4 3 2 1 0 0 1 3 3 3 3 3 3 3 3 4 4 3 3 3 3 3 3 2 3 3 3 3
7 2 2 4 5 6 7 8 7 6 5 5 5 7 6 3 4 3 2 2 1 0 1 2 3 3 3 2 2 2 2 3 4 3 2 2 2 2 2 2 2 3 4 3
6 3 2 4 5 6 7 3 5 5 4 4 3 6 4 3 3 3 2 2 1 2 2 3 3 3 3 2 1 1 2 2 3 3 3 4 3 3 3 3 3 3 4 4
4 2 4 5 4 4 3 3 5 6 5 5 5 5 6 4 3 4 3 2 2 3 3 3 3 3 3 3 2 1 1 2 2 2 3 3 2 2 2 2 3 3 3 4
4 1 2 3 2 3 2 2 4 3 2 6 7 6 5 3 3 2 3 3 3 3 4 4 4 4 4 4 3 2 2 2 2 1 2 3 3 3 2 3 3 3 2 3
4 5 3 1 2 2 2 1 1 2 3 6 3 5 5 1 3 4 4 4 4 4 4 4 4 4 4 4 3 2 2 2 2 1 1 2 3 3 3 3 3 3 2 3
4 5 6 4 4 3 5 4 3 4 4 3 2 6 3 3 4 5 5 5 4 4 3 4 4 4 3 3 3 2 2 2 1 1 0 0 1 2 2 3 3 3 3 2
4 3 2 2 2 2 4 4 2 2 2 4 5 2 1 2 3 3 3 3 3 3 3 3 3 3 3 3 2 1 2 1 1 1 1 0 0 0 1 2 2 2 2 2
2 3 2 2 1 4 3 1 1 3 3 5 5 4 4 4 3 3 3 2 2 3 3 3 3 3 2 2 2 1 1 1 1 1 1 1 1 0 0 0 0 1 1 1
2 2 2 2 6 6 4 3 4 3 3 3 4 3 1 3 3 3 2 2 2 2 2 2 2 2 2 2 2 2 1 1 1 1 1 1 1 1 1 0 0 0 0 1
2 2 3 4 1 1 4 5 5 4 5 4 4 5 0 3 3 3 2 2 2 2 2 2 2 2 2 2 2 2 2 1 1 1 1 1 1 1 1 1 1 1 0 1
2 2 1 3 1 1 2 3 4 2 2 4 5 6 1 2 2 2 2 2 2 2 2 2 1 1 1 1 2 2 2 2 2 1 1 1 1 1 1 1 1 1 0 0
1 4 6 7 3 2 4 5 6 5 5 6 9 8 5 4 3 2 2 2 2 2 1 1 1 0 1 1 1 1 2 2 2 2 1 1 1 1 1 1 1 1 0 0
2 5 6 7 6 5 7 8 9 11 10 9 8 8 9 6 4 3 3 3 3 2 2 2 1 0 0 1 1 1 2 2 2 1 1 1 1 1 1 1 1 1 0 0
2 3 2 6 5 6 9 11 12 12 11 12 11 13 8 4 3 2 3 4 3 3 2 1 1 1 1 1 1 2 2 2 2 1 1 1 2 1 1 1 1 1 1 0
4 4 3 6 3 4 11 11 11 9 9 9 13 11 4 4 4 4 4 4 4 3 3 2 2 2 1 1 1 2 2 1 2 1 1 1 1 1 1 1 1 0 0 1
6 5 3 3 1 10 8 2 7 9 10 9 7 6 5 5 3 2 2 3 3 3 3 2 2 1 1 1 1 1 0 0 1 2 2 1 1 1 1 1 1 1 1 1
6 6 4 3 6 10 7 4 5 7 9 7 8 6 5 2 2 3 1 1 2 2 2 2 1 1 0 1 1 0 0 0 1 1 2 2 1 1 1 1 2 2 1 1
4 5 6 6 7 9 6 2 2 2 8 4 5 6 4 2 3 4 1 0 0 0 1 1 1 0 0 0 1 1 1 1 2 2 2 2 1 1 2 2 2 2 1 1
5 6 9 10 9 9 5 2 3 5 7 2 3 4 4 4 4 1 1 1 1 1 1 1 1 0 0 0 1 1 1 2 3 2 2 2 1 2 1 1 1 1 1 1
9 8 9 7 9 11 3 4 6 5 0 1 1 1 1 1 1 0 1 0 1 1 1 1 0 1 1 0 1 1 2 2 2 1 2 2 2 2 1 1 1 1 1 1
9 9 6 9 9 3 4 5 3 1 1 1 1 1 1 1 2 1 1 1 0 0 1 0 0 1 2 1 0 1 2 2 1 1 2 2 1 1 1 1 1 1 1 1
6 5 5 6 7 4 3 2 1 1 1 1 1 1 1 2 2 2 2 1 1 1 1 0 0 1 2 2 1 1 1 1 1 2 2 2 1 1 1 1 1 1 1 1
6 5 6 8 6 3 5 4 4 2 2 1 1 2 2 2 3 3 2 2 2 2 1 1 1 2 2 2 2 2 1 1 2 2 2 2 1 1 1 1 1 2 2 2
7 7 9 9 7 6 5 4 4 4 4 3 3 3 2 3 3 3 3 2 2 2 1 1 2 2 2 2 2 2 2 2 2 2 2 2 2 1 1 1 1 3 3 4
Wind_Direction
190 222 224 228 234 269 295 284 283 285 284 263 259 269 275 267 247 249 256 253 199 214 122 108 114 124 130 142 152 156 162 165 156 158 163 166 174 168 159 149 151 163 169 170
213 230 242 264 262 265 268 276 280 293 333 293 277 276 271 243 228 225 230 238 283 30 89 106 100 111 128 139 141 147 172 174 165 160 162 161 159 166 158 155 158 164 167 176
230 235 230 242 247 258 258 256 271 293 312 273 282 280 244 210 197 200 203 189 171 100 96 100 104 102 111 121 142 152 180 165 162 152 134 130 127 130 154 169 178 178 176 176
244 229 233 241 242 247 261 281 284 288 293 276 251 284 261 208 191 188 188 149 120 87 88 86 89 83 86 91 95 116 167 152 151 150 151 166 176 181 186 179 177 175 175 180
238 192 222 236 243 246 261 316 278 267 262 276 242 251 261 197 204 193 168 128 98 84 83 77 78 86 82 81 80 81 133 130 133 153 164 174 188 189 163 156 166 174 182 186
251 239 249 250 267 244 249 295 284 259 238 255 224 219 262 219 203 157 123 113 100 86 82 71 70 77 68 62 55 57 84 84 92 137 168 181 192 190 169 168 178 184 189 192
236 213 197 212 233 213 216 215 299 261 226 243 206 217 243 190 88 103 104 98 86 76 78 72 65 69 69 63 53 48 69 64 61 89 154 191 196 195 193 186 187 188 192 198
231 229 188 195 213 201 214 213 204 235 252 273 230 228 223 118 92 91 94 99 95 85 78 71 67 64 64 68 63 51 61 56 43 49 70 172 208 206 207 198 191 195 200 203
236 238 131 177 236 230 206 221 252 269 287 278 249 234 206 137 122 112 106 97 94 82 74 71 68 64 61 59 63 62 69 65 37 20 15 20 123 231 223 203 191 189 188 184
279 267 201 167 217 242 248 235 175 200 232 259 262 229 217 188 184 157 142 133 101 82 74 68 65 61 54 51 52 83 82 80 43 29 15 7 8 353 38 80 126 190 182 166
275 237 226 194 208 198 187 201 203 213 222 228 265 259 130 151 147 150 148 140 128 113 98 73 60 58 53 48 50 48 56 56 42 32 21 11 5 18 26 6 340 58 131 179
230 227 246 234 222 306 211 209 189 197 235 230 254 261 117 117 116 116 128 132 118 115 112 103 87 70 52 46 39 37 33 35 33 41 34 14 11 27 20 346 345 0 144 156
170 183 275 287 255 261 251 239 230 233 220 221 230 253 144 105 115 117 136 144 130 134 128 113 99 88 57 44 35 23 19 22 26 44 53 32 21 16 354 338 347 5 23 87
238 213 215 232 256 210 238 244 231 215 222 237 233 247 258 254 242 209 181 167 160 163 155 144 136 102 30 31 27 3 353 8 20 32 40 25 1 351 338 352 14 0 21 116
205 239 244 264 279 268 253 244 229 224 226 233 249 248 252 251 244 226 195 184 187 188 182 179 187 226 336 350 349 348 340 350 2 15 23 5 356 7 7 3 5 23 33 51
204 244 264 269 262 269 268 252 238 236 239 245 259 266 260 258 251 228 208 195 198 208 214 222 217 214 236 290 312 324 321 328 340 338 341 354 11 13 7 343 344 52 39 25
197 195 225 263 273 305 263 232 220 225 228 227 243 252 248 251 240 234 224 207 206 223 232 226 224 226 238 251 268 269 291 324 335 334 343 356 358 359 348 334 339 336 321 332
191 190 216 251 253 243 244 198 202 220 237 228 238 255 252 244 251 264 239 206 212 218 229 232 231 242 243 241 252 264 285 322 325 330 332 342 347 341 346 338 304 294 290 283
204 193 211 219 243 264 265 238 216 224 253 231 232 245 256 258 296 294 292 211 208 211 221 215 211 232 219 211 210 186 287 314 304 298 301 304 310 311 312 307 300 293 285 286
215 203 212 221 232 243 252 205 210 219 263 243 219 227 229 217 254 261 261 186 326 85 112 119 102 86 177 235 144 158 232 268 272 275 283 288 281 262 264 276 291 297 282 282
189 207 219 228 240 254 253 198 131 200 249 256 220 224 208 223 245 272 67 66 70 58 37 57 83 111 261 198 141 193 240 261 280 302 310 305 292 273 267 284 298 299 298 308
194 200 211 217 234 247 205 159 192 219 252 344 307 254 199 239 287 18 57 72 85 49 14 32 52 327 335 69 148 227 262 293 320 318 309 302 297 284 270 256 287 292 275 258
207 205 202 208 225 240 171 196 216 183 217 290 305 318 178 226 262 255 250 239 246 271 312 13 64 322 333 349 159 241 286 315 320 313 296 292 290 281 264 231 252 262 245 242
227 219 226 241 245 234 223 229 261 291 244 279 291 285 214 238 246 251 247 244 240 250 259 248 244 282 304 317 312 273 289 295 271 269 283 281 255 264 276 251 233 231 227 241
219 200 225 244 250 253 240 219 220 228 232 249 275 262 247 224 229 227 234 241 241 255 261 228 229 247 274 296 296 303 298 257 254 260 269 270 249 236 239 241 241 246 244 240
211 203 214 235 220 217 231 205 201 208 229 232 238 257 256 222 224 228 235 242 242 249 257 258 261 262 275 281 286 292 278 242 235 250 253 247 236 234 236 247 283 276 266 275